FW8143 Weather Reports


time (UTC)temp
F
wind
direction
speed
knots
gust
knots
rain 1hr
in
rain 24hr
in
rain mn
in
humidity
%
barometer
mb
20260831033855 71 51 2.6 5.2 0.00 0.00 0.00 40 1030.7
20260831033349 71 68 3.5 6.1 0.00 0.00 0.00 40 1030.7
20260831032844 71 98 3.5 6.1 0.00 0.00 0.00 40 1030.7
20260831032337 71 103 2.6 6.1 0.00 0.00 0.00 40 1030.8
20260831031831 71 78 3.5 6.1 0.00 0.00 0.00 40 1030.7
20260831031326 71 86 3.5 6.1 0.00 0.00 0.00 41 1030.6
20260831030820 71 39 3.5 5.2 0.00 0.00 0.00 41 1030.3
20260831030313 71 19 2.6 5.2 0.00 0.00 0.00 41 1030.3
20260831025808 71 67 3.5 6.1 0.00 0.00 0.00 41 1030.3
20260831025306 71 68 3.5 6.1 0.00 0.00 0.00 41 1030.2
20260831025016 71 26 2.6 4.3 0.00 0.00 0.00 40 1030.1
20260831024858 71 40 2.6 5.2 0.00 0.00 0.00 40 1030.2
20260831023804 71 58 2.6 7.0 0.00 0.00 0.00 40 1030.1
20260831023524 72 37 2.6 7.0 0.00 0.00 0.00 39 1029.9
20260831022804 72 39 2.6 4.3 0.00 0.00 0.00 39 1029.9
20260831022306 72 27 2.6 4.3 0.00 0.00 0.00 39 1029.8
20260831021804 73 30 2.6 4.3 0.00 0.00 0.00 39 1029.9
20260831021304 73 31 3.5 4.3 0.00 0.00 0.00 39 1029.9
20260831020805 74 24 3.5 6.1 0.00 0.00 0.00 38 1029.8
20260831020304 74 16 4.3 6.1 0.00 0.00 0.00 37 1029.7
20260831015804 74 13 4.3 6.1 0.00 0.00 0.00 37 1029.6
20260831015306 75 5 3.5 6.1 0.00 0.00 0.00 36 1029.7
20260831014804 75 16 1.7 4.3 0.00 0.00 0.00 36 1029.6
20260831014304 76 28 1.7 3.5 0.00 0.00 0.00 36 1029.6
20260831013800 76 17 0.9 2.6 0.00 0.00 0.00 35 1029.6
20260831013258 76 348 0.0 2.6 0.00 0.00 0.00 35 1029.6
20260831012758 77 15 0.0 1.7 0.00 0.00 0.00 35 1029.6
20260831012251 77 15 0.0 1.7 0.00 0.00 0.00 35 1029.6
20260831011748 78 15 0.9 2.6 0.00 0.00 0.00 35 1029.6
20260831011505 78 15 0.9 2.6 0.00 0.00 0.00 35 1029.6
20260831010734 78 336 0.9 2.6 0.00 0.00 0.00 36 1029.6
20260831010227 78 346 0.9 2.6 0.00 0.00 0.00 34 1029.6
20260831005722 78 25 0.9 2.6 0.00 0.00 0.00 34 1029.6
20260831005217 78 0 0.9 4.3 0.00 0.00 0.00 33 1029.7
20260831004709 79 332 0.9 4.3 0.00 0.00 0.00 34 1029.7
20260831004204 79 0 0.0 3.5 0.00 0.00 0.00 35 1029.7
20260831003658 79 19 1.7 7.0 0.00 0.00 0.00 34 1029.7
20260831003152 80 0 2.6 7.0 0.00 0.00 0.00 33 1029.7
20260831002646 80 31 1.7 6.1 0.00 0.00 0.00 33 1029.7
20260831002140 80 21 0.0 2.6 0.00 0.00 0.00 33 1029.8
20260831001634 80 338 0.0 0.9 0.00 0.00 0.00 34 1029.9
20260831001128 80 232 0.9 2.6 0.00 0.00 0.00 33 1029.8
20260831000621 81 273 0.9 4.3 0.00 0.00 0.00 32 1029.8
20260831000115 81 261 0.9 4.3 0.00 0.00 0.00 32 1029.8
20260830235610 81 254 0.0 1.7 0.00 0.00 0.00 32 1029.8
20260830235104 82 153 0.0 3.5 0.00 0.00 0.00 31 1029.7
20260830234605 82 142 1.7 6.1 0.00 0.00 0.00 31 1029.8
20260830234104 82 38 2.6 7.8 0.00 0.00 0.00 31 1029.7
20260830233602 83 335 3.5 10.4 0.00 0.00 0.00 30 1029.7
20260830233100 83 342 3.5 11.3 0.00 0.00 0.00 30 1029.7
20260830232601 83 297 3.5 11.3 0.00 0.00 0.00 30 1029.7
20260830232100 83 298 2.6 7.0 0.00 0.00 0.00 30 1029.7
20260830231600 83 131 2.6 7.8 0.00 0.00 0.00 31 1029.7
20260830231100 83 355 2.6 7.8 0.00 0.00 0.00 31 1029.7
20260830230600 82 308 2.6 7.0 0.00 0.00 0.00 32 1029.7
20260830230318 82 258 2.6 8.7 0.00 0.00 0.00 33 1029.8
20260830225816 82 64 3.5 10.4 0.00 0.00 0.00 33 1029.8
20260830225100 81 260 4.3 10.4 0.00 0.00 0.00 33 1029.9
20260830224559 81 11 3.5 8.7 0.00 0.00 0.00 34 1029.9
20260830224100 80 347 3.5 8.7 0.00 0.00 0.00 35 1029.9
20260830223600 79 306 4.3 12.2 0.00 0.00 0.00 36 1030.1
20260830223551 79 311 4.3 12.2 0.00 0.00 0.00 36 1030.1
20260830222559 79 315 5.2 11.3 0.00 0.00 0.00 36 1030.1
20260830222059 79 309 6.1 11.3 0.00 0.00 0.00 35 1030.1
20260830221601 80 40 5.2 11.3 0.00 0.00 0.00 35 1030.1
20260830221059 80 5 4.3 10.4 0.00 0.00 0.00 35 1030.1
20260830220600 80 323 3.5 10.4 0.00 0.00 0.00 35 1030.2
20260830220100 80 32 3.5 10.4 0.00 0.00 0.00 34 1030.3
20260830215559 81 321 2.6 8.7 0.00 0.00 0.00 34 1030.2
20260830215100 81 14 3.5 8.7 0.00 0.00 0.00 34 1030.2
20260830214601 81 30 3.5 8.7 0.00 0.00 0.00 34 1030.2
20260830214100 81 320 3.5 9.6 0.00 0.00 0.00 34 1030.3
20260830213826 81 342 2.6 9.6 0.00 0.00 0.00 34 1030.3
20260830213100 81 285 3.5 10.4 0.00 0.00 0.00 33 1030.3
20260830212821 82 269 3.5 10.4 0.00 0.00 0.00 32 1030.3
20260830212054 82 38 2.6 8.7 0.00 0.00 0.00 32 1030.3
20260830211548 83 288 2.6 7.0 0.00 0.00 0.00 31 1030.3
20260830211042 83 251 3.5 7.0 0.00 0.00 0.00 31 1030.3
20260830210752 84 254 3.5 8.7 0.00 0.00 0.00 30 1030.4
20260830210251 85 317 4.3 8.7 0.00 0.00 0.00 29 1030.6
20260830205749 86 309 3.5 11.3 0.00 0.00 0.00 29 1030.4
20260830205025 86 296 3.5 11.3 0.00 0.00 0.00 28 1030.6
20260830204747 86 263 3.5 9.6 0.00 0.00 0.00 29 1030.7
20260830204026 86 324 4.3 9.6 0.00 0.00 0.00 29 1030.7
20260830203525 85 346 5.2 12.2 0.00 0.00 0.00 31 1030.8
20260830203025 85 12 5.2 12.2 0.00 0.00 0.00 31 1030.8
20260830202526 85 244 3.5 10.4 0.00 0.00 0.00 31 1030.9
20260830202025 85 9 4.3 10.4 0.00 0.00 0.00 31 1031.1
20260830201525 84 296 3.5 10.4 0.00 0.00 0.00 31 1031.1
20260830201025 84 0 3.5 8.7 0.00 0.00 0.00 32 1031.2
20260830200525 84 296 6.1 11.3 0.00 0.00 0.00 31 1031.3
20260830200025 84 292 7.0 12.2 0.00 0.00 0.00 30 1031.3
20260830195751 85 125 6.1 12.2 0.00 0.00 0.00 30 1031.5
20260830195025 85 257 5.2 11.3 0.00 0.00 0.00 31 1031.5
20260830194525 84 288 4.3 11.3 0.00 0.00 0.00 32 1031.5
20260830194251 84 284 3.5 11.3 0.00 0.00 0.00 30 1031.6
20260830193523 84 263 3.5 9.6 0.00 0.00 0.00 31 1031.6
20260830193506 84 291 4.3 10.4 0.00 0.00 0.00 31 1031.7
20260830192517 83 141 3.5 10.4 0.00 0.00 0.00 32 1031.7
20260830192011 83 211 2.6 7.0 0.00 0.00 0.00 33 1031.7
20260830191504 82 323 3.5 9.6 0.00 0.00 0.00 33 1031.7
20260830190959 82 318 4.3 10.4 0.00 0.00 0.00 33 1031.8
20260830190453 82 292 5.2 10.4 0.00 0.00 0.00 32 1031.8
20260830185946 82 345 4.3 10.4 0.00 0.00 0.00 32 1031.8
20260830185702 82 0 5.2 14.8 0.00 0.00 0.00 32 1032.0
20260830185153 81 335 5.2 14.8 0.00 0.00 0.00 33 1032.0
20260830184428 81 298 4.3 11.3 0.00 0.00 0.00 32 1032.2
20260830184143 81 327 4.3 11.3 0.00 0.00 0.00 34 1032.2
20260830183416 81 255 4.3 11.3 0.00 0.00 0.00 34 1032.2
20260830182910 80 270 3.5 9.6 0.00 0.00 0.00 33 1032.3
20260830182404 80 88 4.3 9.6 0.00 0.00 0.00 34 1032.5
20260830181858 80 274 3.5 9.6 0.00 0.00 0.00 35 1032.5
20260830181353 79 348 3.5 11.3 0.00 0.00 0.00 34 1032.5
20260830180846 79 333 5.2 13.0 0.00 0.00 0.00 34 1032.6
20260830180340 79 344 5.2 13.9 0.00 0.00 0.00 35 1032.6
20260830175835 78 229 5.2 13.9 0.00 0.00 0.00 35 1032.6
20260830175328 78 191 4.3 9.6 0.00 0.00 0.00 35 1032.8
20260830174822 78 302 4.3 10.4 0.00 0.00 0.00 35 1032.8
20260830174317 78 285 3.5 10.4 0.00 0.00 0.00 38 1032.8
20260830173810 77 295 3.5 8.7 0.00 0.00 0.00 39 1033.0
20260830173305 77 335 4.3 9.6 0.00 0.00 0.00 38 1033.1
20260830172759 77 348 3.5 9.6 0.00 0.00 0.00 40 1033.2
20260830172253 76 285 3.5 9.6 0.00 0.00 0.00 40 1033.2
20260830171746 76 247 3.5 9.6 0.00 0.00 0.00 39 1033.2
20260830171241 75 329 3.5 9.6 0.00 0.00 0.00 41 1033.3
20260830170734 75 252 1.7 9.6 0.00 0.00 0.00 43 1033.2
20260830170228 75 317 2.6 7.0 0.00 0.00 0.00 42 1033.3
20260830165722 74 331 2.6 7.0 0.00 0.00 0.00 43 1033.5
20260830165217 74 258 3.5 10.4 0.00 0.00 0.00 45 1033.5
20260830164710 74 327 4.3 10.4 0.00 0.00 0.00 45 1033.6
20260830164205 73 294 4.3 10.4 0.00 0.00 0.00 44 1033.6
20260830163659 73 301 5.2 11.3 0.00 0.00 0.00 46 1033.7
20260830163152 73 257 5.2 11.3 0.00 0.00 0.00 46 1033.6
20260830162647 72 275 3.5 11.3 0.00 0.00 0.00 46 1033.6
20260830162407 72 287 3.5 10.4 0.00 0.00 0.00 44 1033.5
20260830161634 72 317 5.2 10.4 0.00 0.00 0.00 43 1033.5
20260830161128 72 355 4.3 10.4 0.00 0.00 0.00 44 1033.5
20260830160622 71 331 4.3 10.4 0.00 0.00 0.00 46 1033.3
20260830160116 71 325 4.3 9.6 0.00 0.00 0.00 47 1033.3
20260830155611 70 23 3.5 8.7 0.00 0.00 0.00 49 1033.5
20260830155104 70 351 2.6 7.8 0.00 0.00 0.00 51 1033.3
20260830154558 69 336 1.7 7.8 0.00 0.00 0.00 52 1033.3
20260830154052 68 273 1.7 6.1 0.00 0.00 0.00 53 1033.2
20260830153546 68 290 0.9 6.1 0.00 0.00 0.00 54 1033.2
20260830153041 67 9 0.9 4.3 0.00 0.00 0.00 56 1033.1
20260830152533 67 288 0.9 3.5 0.00 0.00 0.00 57 1033.1
20260830152224 66 319 0.0 0.9 0.00 0.00 0.00 60 1033.0
20260830152113 66 254 0.0 1.7 0.00 0.00 0.00 58 1033.0
20260830151015 66 61 0.9 2.6 0.00 0.00 0.00 61 1033.0
20260830150732 65 61 0.9 3.5 0.00 0.00 0.00 62 1033.1
20260830150011 65 5 0.0 3.5 0.00 0.00 0.00 62 1033.1
20260830145506 65 336 0.9 3.5 0.00 0.00 0.00 62 1033.2
20260830145007 65 311 0.9 6.1 0.00 0.00 0.00 62 1033.2
20260830144509 64 227 0.9 6.1 0.00 0.00 0.00 61 1033.1
20260830144005 64 248 0.9 5.2 0.00 0.00 0.00 61 1033.2
20260830143505 64 235 0.9 4.3 0.00 0.00 0.00 61 1033.1
20260830143003 64 235 0.9 4.3 0.00 0.00 0.00 61 1033.1
20260830142504 64 262 1.7 6.1 0.00 0.00 0.00 61 1033.2
20260830142002 64 242 2.6 7.0 0.00 0.00 0.00 61 1033.2
20260830141717 63 259 0.9 7.0 0.00 0.00 0.00 60 1033.2
20260830140956 63 235 0.0 0.0 0.00 0.00 0.00 61 1033.1
20260830140455 63 235 0.0 1.7 0.00 0.00 0.00 60 1033.1
20260830135952 63 235 0.9 2.6 0.00 0.00 0.00 60 1033.1
20260830135713 63 256 0.9 2.6 0.00 0.00 0.00 60 1033.0
20260830134950 63 237 0.0 2.6 0.00 0.00 0.00 60 1033.0
20260830134707 63 250 0.0 1.7 0.00 0.00 0.00 59 1033.0
20260830133949 63 192 0.0 0.0 0.00 0.00 0.00 59 1033.0
20260830133446 63 192 0.0 0.0 0.00 0.00 0.00 59 1032.8
20260830132945 63 192 0.0 0.0 0.00 0.00 0.00 59 1032.7
20260830132443 63 192 0.0 0.0 0.00 0.00 0.00 58 1032.7
20260830131943 63 192 0.0 0.0 0.00 0.00 0.00 59 1032.6
20260830131443 63 192 0.0 0.0 0.00 0.00 0.00 59 1032.6
20260830130943 63 192 0.0 0.0 0.00 0.00 0.00 58 1032.6
20260830130442 63 221 0.0 0.0 0.00 0.00 0.00 57 1032.6
20260830125943 63 172 0.0 0.0 0.00 0.00 0.00 57 1032.6
20260830125706 63 172 0.0 0.0 0.00 0.00 0.00 57 1032.6
20260830124942 63 172 0.0 0.0 0.00 0.00 0.00 56 1032.6
20260830124703 63 172 0.0 0.0 0.00 0.00 0.00 56 1032.3
20260830124155 63 153 0.0 0.0 0.00 0.00 0.00 56 1032.3
20260830123438 63 72 0.0 0.0 0.00 0.00 0.00 56 1032.3
20260830123159 63 72 0.0 0.0 0.00 0.00 0.00 55 1032.3
20260830122439 63 72 0.0 0.0 0.00 0.00 0.00 55 1032.2
20260830121938 63 72 0.0 0.0 0.00 0.00 0.00 55 1032.2
20260830121659 63 72 0.0 0.0 0.00 0.00 0.00 55 1032.2
20260830120939 64 72 0.0 0.0 0.00 0.00 0.00 54 1032.2
20260830120703 64 72 0.0 0.0 0.00 0.00 0.00 54 1032.2
20260830115938 64 72 0.0 0.0 0.00 0.00 0.00 54 1032.2
20260830115438 64 72 0.0 0.0 0.00 0.00 0.00 54 1032.2
20260830114938 64 72 0.0 0.0 0.00 0.00 0.00 54 1032.1
20260830114653 64 68 0.0 0.0 0.00 0.00 0.00 54 1031.8
20260830114531 64 72 0.0 0.0 0.00 0.00 0.00 54 1032.0
20260830113436 64 68 0.0 0.0 0.00 0.00 0.00 54 1032.0
20260830112936 64 68 0.9 4.3 0.00 0.00 0.00 54 1031.8
20260830112436 64 55 1.7 4.3 0.00 0.00 0.00 54 1032.0
20260830111935 64 17 2.6 7.0 0.00 0.00 0.00 55 1032.0
20260830111434 64 22 3.5 7.0 0.00 0.00 0.00 55 1032.0
20260830110936 64 24 3.5 7.0 0.00 0.00 0.00 54 1032.1
20260830110431 64 11 2.6 7.0 0.00 0.00 0.00 54 1032.1
20260830110149 64 5 1.7 7.0 0.00 0.00 0.00 53 1032.1
20260830105425 64 338 1.7 7.0 0.00 0.00 0.00 53 1032.1
20260830104924 64 15 0.9 6.1 0.00 0.00 0.00 53 1032.1
20260830104646 64 12 0.0 6.1 0.00 0.00 0.00 54 1032.1
20260830104145 63 30 0.9 2.6 0.00 0.00 0.00 55 1032.1
20260830103423 63 30 1.7 3.5 0.00 0.00 0.00 55 1031.8
20260830102922 63 30 2.6 5.2 0.00 0.00 0.00 55 1031.7
20260830102424 63 55 2.6 6.1 0.00 0.00 0.00 55 1031.6
20260830101923 63 80 1.7 6.1 0.00 0.00 0.00 56 1031.6
20260830101422 62 81 0.9 3.5 0.00 0.00 0.00 57 1031.6
20260830100921 62 84 1.7 4.3 0.00 0.00 0.00 58 1031.7
20260830100421 62 86 1.7 7.0 0.00 0.00 0.00 58 1031.7
20260830095922 62 67 2.6 7.0 0.00 0.00 0.00 59 1031.8
20260830095420 61 24 3.5 7.0 0.00 0.00 0.00 60 1032.0
20260830094920 61 53 3.5 7.0 0.00 0.00 0.00 61 1031.8
20260830094420 60 28 3.5 7.0 0.00 0.00 0.00 62 1031.8
20260830093919 60 44 3.5 7.0 0.00 0.00 0.00 64 1031.8
20260830093645 60 38 3.5 8.7 0.00 0.00 0.00 67 1032.0
20260830092917 60 61 4.3 8.7 0.00 0.00 0.00 69 1031.8
20260830092411 60 30 5.2 9.6 0.00 0.00 0.00 71 1032.0
20260830091905 60 39 7.0 11.3 0.00 0.00 0.00 73 1032.0
20260830091359 60 30 7.0 11.3 0.00 0.00 0.00 73 1032.1
20260830090853 60 38 6.1 10.4 0.00 0.00 0.00 73 1032.2
20260830090614 60 19 6.1 10.4 0.00 0.00 0.00 73 1032.5
20260830085850 60 10 7.0 12.2 0.00 0.00 0.00 73 1032.6
20260830085350 60 12 5.2 12.2 0.00 0.00 0.00 73 1032.5
20260830084850 60 19 5.2 11.3 0.00 0.00 0.00 72 1032.6
20260830084350 60 9 7.0 12.2 0.00 0.00 0.00 72 1032.6
20260830083851 60 17 8.7 12.2 0.00 0.00 0.00 72 1032.5
20260830083350 60 9 8.7 11.3 0.00 0.00 0.00 72 1032.3
20260830082851 60 22 7.0 11.3 0.00 0.00 0.00 72 1032.3
20260830082350 60 0 5.2 9.6 0.00 0.00 0.00 71 1032.5
20260830081850 60 17 4.3 8.7 0.00 0.00 0.00 70 1032.5
20260830081350 60 15 4.3 8.7 0.00 0.00 0.00 70 1032.3
20260830080850 60 19 5.2 7.8 0.00 0.00 0.00 70 1032.2
20260830080349 60 63 6.1 9.6 0.00 0.00 0.00 71 1032.2
20260830075849 60 23 6.1 9.6 0.00 0.00 0.00 72 1032.1
20260830075349 61 43 5.2 9.6 0.00 0.00 0.00 72 1032.2
20260830074848 61 24 6.1 8.7 0.00 0.00 0.00 72 1032.3
20260830074347 61 42 7.0 9.6 0.00 0.00 0.00 71 1032.2
20260830073841 61 25 7.0 9.6 0.00 0.00 0.00 71 1032.3
20260830073601 62 10 7.8 12.2 0.00 0.00 0.00 70 1032.3
20260830073058 62 355 7.0 12.2 0.00 0.00 0.00 70 1032.2
20260830072324 62 11 7.0 13.0 0.00 0.00 0.00 69 1032.3
20260830071818 62 342 8.7 15.6 0.00 0.00 0.00 69 1032.2
20260830071312 62 38 9.6 15.6 0.00 0.00 0.00 68 1032.2
20260830070806 63 17 9.6 14.8 0.00 0.00 0.00 67 1032.1
20260830070300 63 5 10.4 14.8 0.00 0.00 0.00 67 1032.2
20260830070012 63 13 10.4 13.9 0.00 0.00 0.00 66 1032.2
20260830065247 63 21 9.6 13.9 0.00 0.00 0.00 65 1032.1
20260830064749 63 0 10.4 17.4 0.00 0.00 0.00 65 1032.2
20260830064512 64 337 11.3 17.4 0.00 0.00 0.00 65 1032.1
20260830063749 64 27 10.4 16.5 0.00 0.00 0.00 65 1032.3
20260830063248 64 12 8.7 13.0 0.00 0.00 0.00 65 1032.3
20260830062748 64 5 10.4 17.4 0.00 0.00 0.00 65 1032.5
20260830062249 64 5 12.2 21.7 0.00 0.00 0.00 64 1032.3
20260830061748 64 14 13.0 21.7 0.00 0.00 0.00 64 1032.3
20260830061732 64 0 12.2 17.4 0.00 0.00 0.00 64 1032.3
20260830060746 64 355 11.3 17.4 0.00 0.00 0.00 64 1032.3
20260830060246 64 14 10.4 15.6 0.00 0.00 0.00 64 1032.5
20260830055747 64 21 9.6 15.6 0.00 0.00 0.00 64 1032.5
20260830055246 64 351 9.6 15.6 0.00 0.00 0.00 64 1032.5
20260830054746 65 18 10.4 18.2 0.00 0.00 0.00 64 1032.6
20260830054735 65 53 8.7 18.2 0.00 0.00 0.00 63 1032.7
20260830053747 65 338 9.6 15.6 0.00 0.00 0.00 63 1032.7
20260830053247 65 344 10.4 15.6 0.00 0.00 0.00 62 1032.6
20260830052745 66 26 9.6 14.8 0.00 0.00 0.00 61 1032.7
20260830052501 66 313 10.4 17.4 0.00 0.00 0.00 59 1032.8
20260830051734 66 12 12.2 20.9 0.00 0.00 0.00 59 1033.1
20260830051228 66 0 13.0 20.9 0.00 0.00 0.00 57 1033.1
20260830050945 67 21 10.4 18.2 0.00 0.00 0.00 57 1033.1
20260830050216 67 22 9.6 17.4 0.00 0.00 0.00 57 1033.1
20260830045710 67 9 9.6 17.4 0.00 0.00 0.00 55 1033.1
20260830045422 67 11 9.6 16.5 0.00 0.00 0.00 54 1033.0
20260830044659 67 30 11.3 20.0 0.00 0.00 0.00 54 1033.0
20260830044153 67 26 12.2 20.0 0.00 0.00 0.00 53 1032.8
20260830043646 67 51 12.2 18.2 0.00 0.00 0.00 53 1032.8
20260830043140 68 12 13.0 18.2 0.00 0.00 0.00 52 1033.0
20260830042634 68 26 11.3 18.2 0.00 0.00 0.00 52 1033.0
20260830042127 68 26 8.7 17.4 0.00 0.00 0.00 52 1033.1
20260830041841 68 19 9.6 18.2 0.00 0.00 0.00 52 1033.3
20260830041116 68 0 12.2 18.2 0.00 0.00 0.00 52 1033.5
20260830040610 68 5 12.2 18.2 0.00 0.00 0.00 52 1033.1
20260830040104 68 45 13.0 19.1 0.00 0.00 0.00 52 1033.1
20260830035816 69 355 13.9 20.0 0.00 0.00 0.00 52 1033.2
20260830035052 69 346 13.9 20.0 0.00 0.00 0.00 52 1033.1
20260830034546 69 355 13.9 20.9 0.00 0.00 0.00 52 1033.2